Location: C.E.K. Mees Observatory
(42.7003°N, 77.4088°W)
Time: 17:32:12
(UTC-05:00)

Vanguard 3 - Visible Passes

Search period start: 11 December 2017 00:00
Search period end: 21 December 2017 00:00
Orbit: 509 x 3263 km, 33.3° (Epoch: 10 December)

Date Brightness Start Highest point End Pass type
(mag) Time Alt. Az. Time Alt. Az. Time Alt. Az.
11 Dec 10.0 18:30:21 10° SW 18:33:06 14° SSW 18:36:27 10° S visible
12 Dec 9.5 17:16:43 10° SW 17:19:33 16° SSW 17:23:06 10° SSE visible
14 Dec 9.7 17:02:32 10° SW 17:04:07 12° SSW 17:05:51 10° S visible
